Torna al catalogo

ARIANE 5 R/B

AttivoHEO
NORAD 40615·ROCKET BODY·🇫🇷 France

Lanciato Apr 26, 2015 da Guiana Space Centre

Loading…

Prossimi Passaggi (prossime 24 ore)

TLE

AggiornatoSource: Space-Track

Epoca: Sep 14, 2026, 14:00 UTC

1 40615U 15022C   26257.58393232  .00007584  00000-0  60061-3 0  9993
2 40615   5.6895  41.9048 6613835   9.3879 358.4592  3.19397239110234

Traccia ARIANE 5 R/B in tempo reale con AllMySat

Download on the App Store